Back to catalog

STARLINK-4531

AliveCommunicationsVLEO
NORAD 53425·PAYLOAD·🇺🇸 United States

Launched Aug 10, 2022 from Cape Canaveral Space Force Station

Loading…

Next Passes (next 24 hours)

TLE

FreshSource: CelesTrak SupGP

Epoch: Sep 14, 2026, 14:39 UTC

1 53425C 22097AP  26257.61090278  .00039718  00000+0  12774-2 0  2571
2 53425  53.1583 331.9068 0001277  65.8841 159.7267 15.31678753    19

Track STARLINK-4531 in real time with AllMySat

Download on the App Store